Regional Weather Roundup
Issued by NWS

Home | Current Version | Previous Version | Graphics & Text | Print | Product List | Glossary On
Versions: 1 2 3 4 5 6 7 8 9 10 11 12 13 14 15 16 17 18 19 20 21 22 23 24 25 26 27 28 29 30 31 32 33 34 35 36 37 38 39 40 41 42 43 44 45 46 47 48 49 50
000
ASUS43 KTOP 211059
RWRKS

WEATHER ROUNDUP FOR KANSAS
NATIONAL WEATHER SERVICE GOODLAND KS
500 AM CST WED FEB 21 2018

NOTE:  "FAIR" INDICATES FEW OR NO CLOUDS BELOW 12,000 FEET WITH NO
SIGNIFICANT WEATHER AND/OR OBSTRUCTIONS TO VISIBILITY.

KSZ001>006-013>018-027>032-041>047-211200-
NORTHWEST KANSAS

CITY           SKY/WX    TMP DP  RH WIND       PRES   REMARKS
GOODLAND       CLEAR      2  -4  76 W3        30.30F
HAYS           CLOUDY     8   0  69 N7        30.47F
HILL CITY      CLOUDY     8   3  80 NE6       30.45F
RUSSELL        CLOUDY    11   4  73 N9        30.46F
$$

KSZ061>065-074>080-084>089-211200-
SOUTHWEST KANSAS

CITY           SKY/WX    TMP DP  RH WIND       PRES   REMARKS
DODGE CITY     CLOUDY    10   0  63 N10       30.38F WCI  -4
GARDEN CITY    CLOUDY     7  -1  70 N9        30.37S
GREAT BEND     CLOUDY    12   3  67 N12       30.47S WCI  -2
LIBERAL        CLOUDY    14   2  58 NE10      30.40R WCI   1
$$

KSZ066>073-081>083-090>101-211200-
SOUTHEAST KANSAS

CITY           SKY/WX    TMP DP  RH WIND       PRES   REMARKS
CHANUTE        CLOUDY    20  16  84 N14G20    30.45R WCI   7
COFFEYVILLE    CLOUDY    22  19  89 N14G22    30.44R WCI   9
HUTCHINSON     CLOUDY    13   7  77 N12       30.46S WCI  -1
MEDICINE LODGE   N/A     15   7  70 N12       30.46R WCI   2
NEWTON         CLOUDY    12   8  84 N18       30.45S WCI  -6
PARSONS        CLOUDY    21  17  84 N14G22    30.45R WCI   8
WICHITA INTL   CLOUDY    16  10  77 N17G24    30.45R WCI   0
WICHITA JABRA  CLOUDY    14  10  84 N20       30.44F WCI  -3
WICHITA MCCONL CLOUDY    15   9  78 N17G24    30.44S WCI  -2
WINFIELD       CLOUDY    17  14  88 N20G28    30.43S WCI   1
$$

KSZ007>012-019>026-033>040-048>060-102>105-211200-
NORTHEAST KANSAS

CITY           SKY/WX    TMP DP  RH WIND       PRES   REMARKS
CONCORDIA      CLEAR      9   3  77 N9        30.51F
EMPORIA        MOCLDY    14  10  84 N12       30.49R WCI   0
LAWRENCE       MOCLDY    16  11  80 N13       30.51R WCI   2
MANHATTAN      PTCLDY    14   6  70 N6        30.54R
OLATHE IND     PTCLDY    15  12  88 N15       30.49R WCI   0
OLATHE EXE     CLOUDY    16  13  88 N14       30.48R WCI   2
SALINA         CLOUDY    13   6  74 N16       30.51F WCI  -3
TOPEKA BILLARD PTCLDY    14  10  84 N14       30.54R WCI  -1
TOPEKA FORBES  PTCLDY    15   9  76 N13       30.51R WCI   1
$$




USA.gov is the U.S. government's official web portal to all federal, state and local government web resources and services.